DELTA 1 DEB, 10650

Orbit data source: Space-Track

DELTA 1 DEB, 10650 is space debris in LEO originally from a launch on Thu, 29 Jul 1976 UTC launched from the Air Force Western Test Range (AFWTR). Debris objects in space refer to the collection of defunct objects orbiting the Earth. Examples of debris include non-operational satellites, rocket bodies, and fragments generated from explosions, collisions, or faulty payload assembly.

Loading next visibility...
Identifier
10650, 1976-077L
Orbit
LEO
Country
Flag of USUS
Related business
Manufacturer
Unknown
Mission
Spacecraft
Bus & Motor
Unknown
Mass
Unknown
Launch date (UTC)
1976-07-29 (50 years ago)
Launch vehicle
Unknown
Launch site
Air Force Western Test Range (AFWTR)
Object type
Payload
Rocket body
Debris
Shape & HBR
Unknown shape, 0.1 m
Radar Cross Section
Medium (>0.1 m² and <1 m²)

Expand to show TLE details & history
Last TLE update: 6 hours ago

TLE from 6 hours ago
0 DELTA 1 DEB
1 10650U 76077L   26034.24584416  .00000073  00000-0  17897-2 0  9992
2 10650 102.0845 145.9577 0438560 226.7704 160.9103 11.57490537 95620
Epoch: 2026-02-03T05:54Z
TLE epoch observation values (Epoch: 2026-02-03T05:54:00.935Z)
Latitude
28.57305°
Longitude
-82.6415°
Altitude
2,223.885 km
Speed
6.667 km/s
True Right ascension
09h 17m 10s
True Declination
28° 27' 12"
Sunlit
Object was in full shadow at epoch
Visualization orbit readout
Latitude
Unknown
Longitude
Unknown
Altitude
Unknown
Speed
Unknown
Apparent Right ascension
Unknown
Apparent Declination
Unknown
Sunlit
N/A
Visualization observer readout
Local Sidereal Time
13:18:12
Azimuth
Unknown
Elevation
Unknown
Doppler factor
Unknown
Orbital elements
Apogee altitude
2,236.603 km
Perigee altitude
1,512.733 km
Semi-major axis
8,252.805 km
Eccentricity
0.04386
Inclination
102.0845°
RAAN
145.9577°
Arg. of periapsis
226.7704°
True anomaly
162.4726°
Mean anomaly
160.9103°
Eccentric anomaly
161.69932°
Mean motion
2.89495 °/min
Orbital period
124.35 mins
BSTAR
0.0017897
Loading maneuver chart data...
Computing Atmospheric mass density...
Loading historical data...
Loading historical data...
Loading historical data...
Loading historical data...
Loading historical data...
Loading historical data...
Loading historical data...

Documentation

Showing up to 5 results
|